This is the latest recevied weather packets stored in our database for station/object OK2KJT-11. If no packets are shown the sender has not sent any weather packets the latest 10 day(s).
| Time | Temp. | Humidity | Pressure | Rain* | Wind** | Luminosity | Snow |
|---|---|---|---|---|---|---|---|
| 1788000705 | 20.56° C | 63% | 1019.2 hPa | - | - | - | - |
| 1788000105 | 20.56° C | 65% | 1019.2 hPa | - | - | - | - |
| 1787999505 | 20° C | 66% | 1019.2 hPa | - | - | - | - |
| 1787998905 | 20° C | 66% | 1019.2 hPa | - | - | - | - |
| 1787998306 | 20° C | 67% | 1019.2 hPa | - | - | - | - |
| 1787997107 | 18.89° C | 73% | 1019 hPa | - | - | - | - |
| 1787996508 | 18.89° C | 73% | 1019 hPa | - | - | - | - |
| 1787995908 | 18.33° C | 75% | 1019 hPa | - | - | - | - |
| 1787995308 | 17.78° C | 78% | 1018.9 hPa | - | - | - | - |
| 1787994709 | 17.22° C | 78% | 1018.8 hPa | - | - | - | - |
| 1787994109 | 17.22° C | 81% | 1018.8 hPa | - | - | - | - |
| 1787993509 | 16.67° C | 84% | 1018.8 hPa | - | - | - | - |
| 1787992909 | 16.11° C | 86% | 1018.6 hPa | - | - | - | - |
| 1787992310 | 15.56° C | 88% | 1018.7 hPa | - | - | - | - |
| 1787991710 | 15.56° C | 88% | 1018.8 hPa | - | - | - | - |
| 1787991110 | 16.11° C | 90% | 1018.7 hPa | - | - | - | - |
| 1787990510 | 15.56° C | 90% | 1018.6 hPa | - | - | - | - |
| 1787989911 | 15.56° C | 92% | 1018.5 hPa | - | - | - | - |
| 1787989311 | 15° C | 96% | 1018.4 hPa | - | - | - | - |
| 1787988711 | 14.44° C | 98% | 1018.3 hPa | - | - | - | - |
| 1787988111 | 13.89° C | 99% | 1018.3 hPa | - | - | - | - |
| 1787987512 | 13.33° C | 100% | 1018.1 hPa | - | - | - | - |
| 1787986312 | 13.33° C | 100% | 1018.1 hPa | - | - | - | - |
| 1787985712 | 12.78° C | 100% | 1017.9 hPa | - | - | - | - |
| 1787985114 | 12.78° C | 100% | 1018.2 hPa | - | - | - | - |
* Rain since midnight (hover to see other rain measurements)
** Current wind speed in m/s (hover to see current wind gust speed)